NOAA 17 DEB, 48753

Orbit data source: Space-Track

NOAA 17 DEB, 48753 is space debris in SSO originally from a launch on Mon, 24 Jun 2002 UTC launched from the Air Force Western Test Range (AFWTR). Debris objects in space refer to the collection of defunct objects orbiting the Earth. Examples of debris include non-operational satellites, rocket bodies, and fragments generated from explosions, collisions, or faulty payload assembly.

Loading next visibility...
Identifier
48753, 2002-032CN
Orbit
SSO
Country
Flag of USUS
Related business
Manufacturer
Unknown
Mission
Spacecraft
Bus & Motor
Unknown
Mass
Unknown
Launch date (UTC)
2002-06-24 (23 years ago)
Launch vehicle
Unknown
Launch site
Air Force Western Test Range (AFWTR)
Object type
Payload
Rocket body
Debris
Shape & HBR
Unknown shape, 0.1 m
Radar Cross Section
Small (<0.1 m²)

Expand to show TLE details & history
Last TLE update: 17 hours ago

TLE from 17 hours ago
0 NOAA 17 DEB
1 48753U 02032CN  25348.89852527  .00007985  00000-0  18449-2 0  9999
2 48753  98.7334 326.0672 0024458  26.0909 334.1514 14.55298469246688
Epoch: 2025-12-14T21:33Z
TLE epoch observation values (Epoch: 2025-12-14T21:33:52.583Z)
Latitude
0.00001°
Longitude
-81.20673°
Altitude
695.764 km
Speed
7.517 km/s
True Right ascension
21h 44m 16s
True Declination
0° 00' 00"
Sunlit
Object was in daylight at epoch
Visualization orbit readout
Latitude
Unknown
Longitude
Unknown
Altitude
Unknown
Speed
Unknown
Apparent Right ascension
Unknown
Apparent Declination
Unknown
Sunlit
N/A
Visualization observer readout
Local Sidereal Time
13:19:50
Azimuth
Unknown
Elevation
Unknown
Doppler factor
Unknown
Orbital elements
Apogee altitude
722.834 km
Perigee altitude
688.183 km
Semi-major axis
7,083.645 km
Eccentricity
0.00245
Inclination
98.7334°
RAAN
326.0672°
Arg. of periapsis
26.0909°
True anomaly
334.02887°
Mean anomaly
334.1514°
Eccentric anomaly
334.09017°
Mean motion
3.64047 °/min
Orbital period
98.89 mins
BSTAR
0.0018449
Loading maneuver chart data...
Computing Atmospheric mass density...
Loading historical data...
Loading historical data...
Loading historical data...
Loading historical data...
Loading historical data...
Loading historical data...
Loading historical data...

Documentation

Showing up to 5 results
|